Weather History for Zagreb Pleso, Croatia

Change the Weather History Date:

Monday, December 3, 2012

  Actual Average Record
Temperature  
Mean Temperature 36 °F -  
Max Temperature 44 °F - - ()
Min Temperature 28 °F - - ()
Degree Days  
Heating Degree Days 29    
Moisture  
Dew Point 31 °F    
Average Humidity 86    
Maximum Humidity 100    
Minimum Humidity 61    
Precipitation  
Precipitation 0.00 in - - ()
Sea Level Pressure  
Sea Level Pressure 29.89 in    
Wind  
Wind Speed 6 mph ()    
Max Wind Speed 13 mph    
Max Gust Speed -    
Visibility 6.4 miles    
Events Snow    
T = Trace of Precipitation, MM = Missing Value Source: Averaged Metar Reports

Daily Weather History Graph

Daily Weather History Graph

Search for Another Location

Airport:

Trip Planner

Search our weather history database for the weather conditions in past years. The results will help you decide how hot, cold, wet, or windy it might be!

Date:

Astronomy

Dec. 03, 2012 Rise Set
Actual Time 7:18 AM CET 4:12 PM CET
Civil Twilight 6:44 AM CET 4:46 PM CET
Nautical Twilight 6:07 AM CET 5:23 PM CET
Astronomical Twilight 5:31 AM CET 5:59 PM CET
Moon 8:49 PM CET (12/3) 10:26 AM CET (12/3)
Length of Visible Light 10h 01m
Length of Day
8h 53m
Waning Gibbous, 80% of the Moon is Illuminated
Dec 3
Waning Gibbous
Dec 6
Last Quarter
Dec 13
New
Dec 20
First Quarter
Dec 28
Full

Hourly Weather History & Observations

Time (CET) Temp. Windchill Dew Point Humidity Pressure Visibility Wind Dir Wind Speed Gust Speed Precip Events Conditions
12:00 AM 33.8 °F 30.8 °F 32.0 °F 93% 29.83 in 3.1 mi WSW 3.5 mph - N/A Snow Light Snow
12:30 AM 33.8 °F 28.6 °F 32.0 °F 93% 29.83 in 3.7 mi West 5.8 mph - N/A Snow Light Snow
1:00 AM 34 °F - 32 °F 91% 29.85 in 4 mi West 4.5 mph - - Snow Light Snow
1:00 AM 33.8 °F 28.6 °F 32.0 °F 93% 29.83 in 4.3 mi West 5.8 mph - N/A Snow Light Snow
1:30 AM 33.8 °F 27.7 °F 32.0 °F 93% 29.83 in 4.3 mi WSW 6.9 mph - N/A Snow Light Snow
2:00 AM 33.8 °F 27.7 °F 32.0 °F 93% 29.83 in 5.0 mi WSW 6.9 mph - N/A   Unknown
2:30 AM 33.8 °F 28.6 °F 32.0 °F 93% 29.83 in 5.0 mi WSW 5.8 mph - N/A   Unknown
3:00 AM 33.8 °F 28.6 °F 32.0 °F 93% 29.83 in 5.0 mi SW 5.8 mph - N/A   Unknown
3:30 AM 33.8 °F 29.6 °F 32.0 °F 93% 29.83 in 5.0 mi WSW 4.6 mph - N/A   Unknown
4:00 AM 33 °F - 32 °F 94% 29.86 in 5 mi Calm Calm - -   Mist
4:00 AM 33.8 °F 27.7 °F 32.0 °F 93% 29.83 in 5.0 mi WSW 6.9 mph - N/A   Unknown
4:30 AM 33.8 °F 27.7 °F 32.0 °F 93% 29.83 in 5.0 mi WSW 6.9 mph - N/A   Unknown
5:00 AM 33.8 °F 27.7 °F 32.0 °F 93% 29.86 in - SW 6.9 mph - N/A   Clear
5:30 AM 33.8 °F 28.6 °F 32.0 °F 93% 29.83 in - SW 5.8 mph - N/A   Clear
6:00 AM 33.8 °F 28.6 °F 32.0 °F 93% 29.86 in - WSW 5.8 mph - N/A   Clear
6:30 AM 33.8 °F 28.6 °F 32.0 °F 93% 29.86 in 6.2 mi WSW 5.8 mph - N/A   Partly Cloudy
7:00 AM 33 °F - 31 °F 92% 29.89 in 6 mi WSW 6.7 mph - -   Mostly Cloudy
7:00 AM 32.0 °F 26.4 °F 32.0 °F 100% 29.86 in - WSW 5.8 mph - N/A   Clear
7:30 AM 32.0 °F 26.4 °F 32.0 °F 100% 29.86 in - WSW 5.8 mph - N/A   Clear
8:00 AM 33.8 °F 28.6 °F 32.0 °F 93% 29.89 in - WSW 5.8 mph - N/A   Clear
8:30 AM 33.8 °F 28.6 °F 32.0 °F 93% 29.89 in - West 5.8 mph - N/A   Clear
9:00 AM 33.8 °F 28.6 °F 32.0 °F 93% 29.89 in - WSW 5.8 mph - N/A   Clear
9:30 AM 35.6 °F 29.2 °F 33.8 °F 93% 29.89 in 6.2 mi West 8.1 mph - N/A   Partly Cloudy
10:00 AM 37 °F - 33 °F 82% 29.91 in 9 mi WSW 8.9 mph - -   Scattered Clouds
10:00 AM 37.4 °F 30.8 °F 33.8 °F 87% 29.89 in 6.2 mi WSW 9.2 mph - N/A   Partly Cloudy
10:30 AM 37.4 °F 30.3 °F 33.8 °F 87% 29.89 in 6.2 mi West 10.4 mph - N/A   Partly Cloudy
11:00 AM 39.2 °F 33.0 °F 33.8 °F 81% 29.89 in 6.2 mi WSW 9.2 mph - N/A   Partly Cloudy
11:30 AM 41.0 °F 34.3 °F 33.8 °F 76% 29.89 in 6.2 mi West 11.5 mph - N/A   Partly Cloudy
12:00 PM 41.0 °F 34.3 °F 33.8 °F 76% 29.89 in 6.2 mi West 11.5 mph - N/A   Partly Cloudy
12:30 PM 41.0 °F 33.9 °F 35.6 °F 81% 29.89 in 6.2 mi West 12.7 mph - N/A   Partly Cloudy
1:00 PM 42 °F - 33 °F 62% 29.92 in 16 mi West 13.4 mph - -   Scattered Clouds
1:00 PM 42.8 °F 36.2 °F 33.8 °F 70% 29.89 in 6.2 mi West 12.7 mph - N/A   Partly Cloudy
1:30 PM 42.8 °F 37.0 °F 33.8 °F 70% 29.89 in 6.2 mi West 10.4 mph - N/A   Partly Cloudy
2:00 PM 42.8 °F 36.6 °F 32.0 °F 66% 29.89 in 6.2 mi West 11.5 mph - N/A   Partly Cloudy
2:30 PM 42.8 °F 36.6 °F 32.0 °F 66% 29.89 in 6.2 mi West 11.5 mph - N/A   Partly Cloudy
3:00 PM 41.0 °F 35.8 °F 32.0 °F 70% 29.89 in 6.2 mi West 8.1 mph - N/A   Partly Cloudy
3:30 PM 42.8 °F 38.6 °F 32.0 °F 66% 29.89 in 6.2 mi West 6.9 mph - N/A   Partly Cloudy
4:00 PM 40 °F - 31 °F 61% 29.94 in 25 mi West 6.7 mph - -   Scattered Clouds
4:00 PM 41.0 °F 37.1 °F 32.0 °F 70% 29.92 in 6.2 mi West 5.8 mph - N/A   Partly Cloudy
4:30 PM 37.4 °F 33.8 °F 32.0 °F 81% 29.92 in 6.2 mi West 4.6 mph - N/A   Partly Cloudy
5:00 PM 37.4 °F 33.8 °F 30.2 °F 75% 29.92 in - WSW 4.6 mph - N/A   Clear
5:30 PM 35.6 °F 32.8 °F 30.2 °F 81% 29.92 in - SW 3.5 mph - N/A   Clear
6:00 PM 33.8 °F 29.6 °F 30.2 °F 87% 29.92 in - WSW 4.6 mph - N/A   Clear
6:30 PM 32.0 °F - 30.2 °F 93% 29.95 in - Variable 2.3 mph - N/A   Clear
7:00 PM 33 °F - 29 °F 82% 29.96 in 16 mi WSW 2.2 mph - -   Scattered Clouds
7:00 PM 32.0 °F 28.7 °F 30.2 °F 93% 29.95 in - WSW 3.5 mph - N/A   Clear
7:30 PM 30.2 °F 24.3 °F 28.4 °F 93% 29.95 in - WSW 5.8 mph - N/A   Clear
8:00 PM 30.2 °F 25.4 °F 28.4 °F 93% 29.95 in - West 4.6 mph - N/A   Clear
8:30 PM 30.2 °F 26.7 °F 28.4 °F 93% 29.95 in - SE 3.5 mph - N/A   Clear
9:00 PM 32.0 °F - 28.4 °F 87% 29.95 in - NE 1.2 mph - N/A   Clear
9:30 PM 30.2 °F - 28.4 °F 93% 29.95 in - Calm Calm - N/A   Clear
10:00 PM 30 °F - 29 °F 92% 29.97 in 12 mi NE 4.5 mph - -   Mostly Cloudy
10:00 PM 30.2 °F 25.4 °F 28.4 °F 93% 29.95 in - NE 4.6 mph - N/A   Clear
10:30 PM 30.2 °F - 26.6 °F 86% 29.95 in - Variable 2.3 mph - N/A   Clear
11:00 PM 28.4 °F - 26.6 °F 93% 29.95 in - Variable 1.2 mph - N/A   Clear
11:30 PM 28.4 °F - 26.6 °F 93% 29.92 in - Variable 1.2 mph - N/A   Clear